When you browse on this site, cookies collect data to enhance your experience and personalize the content and advertising you see.
Visit our Privacy Policy to learn more. By continuing to use the site, you agree to this use of cookies and data.
  • en France
  • Liste des pays
  • À 7 jours
  • Température de l'eau
  • Carte satellitaire
  • Carte météo
  • Widgets météo
  • user-avatar
    Se connecter

    Météo par heure à Belize

    Ce jour, 16 Juillet, Mardi

    Heure Température Précipitation Vent Pression Humidité
    00:00 +26°C° 0 mm 6 m/s 760 mmHg 96%
    01:00 +26°C° 0.6 mm 6 m/s 759 mmHg 96%
    02:00 +26°C° 0.6 mm 6 m/s 759 mmHg 97%
    03:00 +26°C° 0.6 mm 6 m/s 758 mmHg 97%
    04:00 +26°C° 0.1 mm 6 m/s 759 mmHg 97%
    05:00 +27°C° 0.1 mm 6 m/s 759 mmHg 97%
    06:00 +27°C° 0.1 mm 6 m/s 759 mmHg 97%
    07:00 +29°C° 0 mm 6 m/s 760 mmHg 86%
    08:00 +32°C° 0 mm 6 m/s 760 mmHg 76%
    09:00 +34°C° 0 mm 6 m/s 760 mmHg 66%
    10:00 +34°C° 0 mm 6 m/s 760 mmHg 61%
    11:00 +35°C° 0 mm 6 m/s 760 mmHg 57%
    12:00 +36°C° 0 mm 6 m/s 760 mmHg 52%
    13:00 +36°C° 0 mm 5 m/s 760 mmHg 54%
    14:00 +35°C° 0 mm 5 m/s 759 mmHg 55%
    15:00 +35°C° 0 mm 5 m/s 759 mmHg 56%
    16:00 +34°C° 0 mm 5 m/s 759 mmHg 63%
    17:00 +32°C° 0 mm 5 m/s 759 mmHg 69%
    18:00 +30°C° 0 mm 5 m/s 759 mmHg 76%
    19:00 +29°C° 0 mm 5 m/s 759 mmHg 82%
    20:00 +28°C° 0 mm 6 m/s 760 mmHg 89%
    21:00 +27°C° 0 mm 6 m/s 760 mmHg 95%
    22:00 +27°C° 0.1 mm 6 m/s 760 mmHg 96%
    23:00 +27°C° 0.1 mm 6 m/s 760 mmHg 96%

    Demain, 17 Juillet, Mercredi

    Heure Température Précipitation Vent Pression Humidité
    00:00 +27°C° 0.1 mm 5 m/s 760 mmHg 97%
    01:00 +26°C° 0 mm 5 m/s 760 mmHg 97%
    02:00 +26°C° 0 mm 5 m/s 759 mmHg 98%
    03:00 +26°C° 0 mm 6 m/s 759 mmHg 98%
    04:00 +26°C° 0.1 mm 6 m/s 759 mmHg 98%
    05:00 +26°C° 0.1 mm 6 m/s 759 mmHg 97%
    06:00 +26°C° 0.1 mm 6 m/s 759 mmHg 97%
    07:00 +28°C° 0.1 mm 6 m/s 760 mmHg 87%
    08:00 +30°C° 0.1 mm 6 m/s 760 mmHg 78%
    09:00 +33°C° 0.1 mm 7 m/s 761 mmHg 68%
    10:00 +33°C° 0.3 mm 7 m/s 761 mmHg 70%
    11:00 +33°C° 0.3 mm 7 m/s 761 mmHg 72%
    12:00 +33°C° 0.3 mm 7 m/s 760 mmHg 74%
    13:00 +32°C° 0.5 mm 7 m/s 760 mmHg 78%
    14:00 +32°C° 0.5 mm 7 m/s 760 mmHg 82%
    15:00 +30°C° 0.5 mm 7 m/s 759 mmHg 86%
    16:00 +30°C° 0.4 mm 7 m/s 759 mmHg 84%
    17:00 +29°C° 0.4 mm 7 m/s 759 mmHg 83%
    18:00 +29°C° 0.4 mm 7 m/s 759 mmHg 82%
    19:00 +28°C° 0.4 mm 7 m/s 759 mmHg 86%
    20:00 +27°C° 0.4 mm 7 m/s 759 mmHg 91%
    21:00 +26°C° 0.4 mm 7 m/s 760 mmHg 96%
    22:00 +26°C° 0.5 mm 7 m/s 760 mmHg 97%
    23:00 +26°C° 0.5 mm 7 m/s 760 mmHg 97%

    Après-demain, 18 Juillet, Jeudi

    Heure Température Précipitation Vent Pression Humidité
    00:00 +26°C° 0.5 mm 7 m/s 760 mmHg 98%
    01:00 +26°C° 0.2 mm 7 m/s 759 mmHg 98%
    02:00 +26°C° 0.2 mm 7 m/s 759 mmHg 98%
    03:00 +26°C° 0.2 mm 7 m/s 758 mmHg 98%
    04:00 +26°C° 0.4 mm 7 m/s 759 mmHg 98%
    05:00 +26°C° 0.4 mm 7 m/s 759 mmHg 98%
    06:00 +26°C° 0.4 mm 8 m/s 759 mmHg 98%
    07:00 +28°C° 0 mm 8 m/s 760 mmHg 89%
    08:00 +29°C° 0 mm 8 m/s 760 mmHg 79%
    09:00 +32°C° 0 mm 8 m/s 761 mmHg 70%
    10:00 +33°C° 0 mm 7 m/s 761 mmHg 64%
    11:00 +34°C° 0 mm 7 m/s 760 mmHg 58%
    12:00 +35°C° 0 mm 7 m/s 760 mmHg 53%
    13:00 +35°C° 0 mm 7 m/s 760 mmHg 54%
    14:00 +34°C° 0 mm 6 m/s 759 mmHg 55%
    15:00 +34°C° 0 mm 6 m/s 759 mmHg 56%
    16:00 +33°C° 0 mm 6 m/s 759 mmHg 63%
    17:00 +30°C° 0 mm 6 m/s 759 mmHg 69%
    18:00 +29°C° 0 mm 6 m/s 759 mmHg 76%
    19:00 +28°C° 0 mm 6 m/s 759 mmHg 82%
    20:00 +26°C° 0 mm 6 m/s 760 mmHg 88%
    21:00 +24°C° 0 mm 6 m/s 760 mmHg 94%
    22:00 +24°C° 0 mm 6 m/s 760 mmHg 95%
    23:00 +24°C° 0 mm 6 m/s 760 mmHg 95%

    19 Juillet, Vendredi

    Heure Température Précipitation Vent Pression Humidité
    00:00 +26°C° 0 mm 6 m/s 759 mmHg 96%
    01:00 +26°C° 0 mm 6 m/s 759 mmHg 96%
    02:00 +26°C° 0 mm 6 m/s 759 mmHg 97%
    03:00 +26°C° 0 mm 5 m/s 758 mmHg 98%
    04:00 +26°C° 0 mm 5 m/s 759 mmHg 97%
    05:00 +26°C° 0 mm 5 m/s 759 mmHg 97%
    06:00 +26°C° 0 mm 5 m/s 759 mmHg 96%
    07:00 +28°C° 0 mm 5 m/s 760 mmHg 86%
    08:00 +29°C° 0 mm 5 m/s 760 mmHg 75%
    09:00 +32°C° 0 mm 5 m/s 761 mmHg 64%
    10:00 +33°C° 0.1 mm 5 m/s 760 mmHg 59%
    11:00 +34°C° 0.1 mm 4 m/s 760 mmHg 54%
    12:00 +35°C° 0.1 mm 4 m/s 760 mmHg 50%
    13:00 +34°C° 0.6 mm 4 m/s 760 mmHg 59%
    14:00 +33°C° 0.6 mm 4 m/s 759 mmHg 69%
    15:00 +30°C° 0.6 mm 5 m/s 759 mmHg 78%
    16:00 +30°C° 0.1 mm 4 m/s 759 mmHg 80%
    17:00 +29°C° 0.1 mm 4 m/s 759 mmHg 81%
    18:00 +29°C° 0.1 mm 4 m/s 759 mmHg 82%
    19:00 +28°C° 0 mm 4 m/s 759 mmHg 87%
    20:00 +27°C° 0 mm 4 m/s 759 mmHg 91%
    21:00 +26°C° 0 mm 5 m/s 760 mmHg 96%
    22:00 +26°C° 0 mm 4 m/s 760 mmHg 96%
    23:00 +26°C° 0 mm 4 m/s 759 mmHg 96%

    20 Juillet, Samedi

    Heure Température Précipitation Vent Pression Humidité
    00:00 +26°C° 0 mm 4 m/s 759 mmHg 97%
    01:00 +26°C° 0 mm 4 m/s 759 mmHg 96%
    02:00 +26°C° 0 mm 4 m/s 758 mmHg 95%
    03:00 +26°C° 0 mm 4 m/s 758 mmHg 94%
    04:00 +26°C° 0.3 mm 4 m/s 758 mmHg 94%
    05:00 +26°C° 0.3 mm 4 m/s 758 mmHg 95%
    06:00 +26°C° 0.3 mm 4 m/s 758 mmHg 95%
    07:00 +27°C° 1.7 mm 4 m/s 759 mmHg 91%
    08:00 +29°C° 1.7 mm 4 m/s 759 mmHg 87%
    09:00 +30°C° 1.7 mm 5 m/s 760 mmHg 83%
    10:00 +30°C° 2.7 mm 5 m/s 759 mmHg 85%
    11:00 +30°C° 2.7 mm 6 m/s 759 mmHg 88%
    12:00 +30°C° 2.7 mm 6 m/s 759 mmHg 90%
    13:00 +30°C° 0.5 mm 6 m/s 759 mmHg 91%
    14:00 +29°C° 0.5 mm 6 m/s 758 mmHg 91%
    15:00 +29°C° 0.5 mm 6 m/s 758 mmHg 92%
    16:00 +28°C° 0.1 mm 5 m/s 758 mmHg 91%
    17:00 +28°C° 0.1 mm 5 m/s 758 mmHg 90%
    18:00 +27°C° 0.1 mm 5 m/s 758 mmHg 90%
    19:00 +27°C° 0.8 mm 5 m/s 758 mmHg 93%
    20:00 +27°C° 0.8 mm 6 m/s 758 mmHg 95%
    21:00 +26°C° 0.8 mm 6 m/s 759 mmHg 98%
    22:00 +26°C° 1.3 mm 6 m/s 758 mmHg 98%
    23:00 +26°C° 1.3 mm 6 m/s 758 mmHg 98%

    21 Juillet, Dimanche

    Heure Température Précipitation Vent Pression Humidité
    00:00 +26°C° 1.3 mm 6 m/s 758 mmHg 99%
    01:00 +26°C° 1 mm 6 m/s 758 mmHg 98%
    02:00 +26°C° 1 mm 6 m/s 758 mmHg 98%
    03:00 +26°C° 1 mm 5 m/s 757 mmHg 98%
    04:00 +26°C° 1.3 mm 5 m/s 758 mmHg 98%
    05:00 +26°C° 1.3 mm 5 m/s 758 mmHg 99%
    06:00 +26°C° 1.3 mm 5 m/s 758 mmHg 99%
    07:00 +27°C° 0.8 mm 5 m/s 758 mmHg 95%
    08:00 +28°C° 0.8 mm 5 m/s 759 mmHg 92%
    09:00 +30°C° 0.8 mm 5 m/s 759 mmHg 89%
    10:00 +30°C° 0.7 mm 5 m/s 759 mmHg 89%
    11:00 +30°C° 0.7 mm 5 m/s 759 mmHg 88%
    12:00 +30°C° 0.7 mm 5 m/s 759 mmHg 87%
    13:00 +30°C° 0.8 mm 6 m/s 758 mmHg 86%
    14:00 +30°C° 0.8 mm 6 m/s 758 mmHg 85%
    15:00 +30°C° 0.8 mm 6 m/s 757 mmHg 84%
    16:00 +30°C° 0.2 mm 6 m/s 757 mmHg 87%
    17:00 +29°C° 0.2 mm 6 m/s 757 mmHg 90%
    18:00 +29°C° 0.2 mm 6 m/s 757 mmHg 92%
    19:00 +28°C° 0.1 mm 6 m/s 758 mmHg 94%
    20:00 +27°C° 0.1 mm 6 m/s 758 mmHg 96%
    21:00 +27°C° 0.1 mm 6 m/s 759 mmHg 98%
    22:00 +26°C° 0 mm 6 m/s 759 mmHg 98%
    23:00 +26°C° 0 mm 6 m/s 759 mmHg 98%
    Voir plus